Oak Ridge, TN

8:48 PM EST on November 13, 2019 (GMT -0500)
Oak Ridge

Weather History for KOQT - September, 2019

Change the Weather History Date:

Monday, September 9, 2019

  Actual Average (KTYS) Record (KTYS)
Temperature  
Mean Temperature 78 °F -  
Max Temperature 93 °F 85 °F 100 °F (1925)
Min Temperature 64 °F 62 °F 46 °F (1984)
Cooling Degree Days 12    
Growing Degree Days 28 (Base 50)    
Moisture  
Dew Point 63 °F    
Average Humidity 68    
Maximum Humidity 90    
Minimum Humidity 38    
Precipitation  
Precipitation 0.00 in - - ()
Sea Level Pressure  
Sea Level Pressure 30.12 in    
Wind  
Wind Speed 1 mph ()    
Max Wind Speed 5 mph    
Max Gust Speed -    
Visibility 10.0 miles    
Events      
Averages and records for this station are not official NWS values.
T = Trace of Precipitation, MM = Missing Value Source: Averaged Metar Reports

Daily Weather History Graph

Daily Weather History Graph

Search for Another Location

Airport or City:

Astronomy

Sep. 09, 2019 Rise Set
Actual Time 7:14 AM EDT 7:53 PM EDT
Civil Twilight 6:48 AM EDT 8:19 PM EDT
Nautical Twilight 6:18 AM EDT 8:49 PM EDT
Astronomical Twilight 5:46 AM EDT 9:20 PM EDT
Moon 5:39 PM EDT (9/9) 2:54 AM EDT (9/9)
Length of Visible Light 13h 30m
Length of Day
12h 38m
Waxing Gibbous, 83% of the Moon is Illuminated
Sep 9
Waxing Gibbous
Sep 14
Full
Sep 21
Last Quarter
Sep 28
New
Oct 5
First Quarter

Hourly Weather History & Observations

Time (EDT) Temp. Heat Index Dew Point Humidity Pressure Visibility Wind Dir Wind Speed Gust Speed Precip Events Conditions
12:53 AM 70.0 °F - 64.0 °F 81% 30.07 in 10.0 mi Calm Calm - N/A   Clear
1:53 AM 69.1 °F - 64.0 °F 84% 30.07 in 10.0 mi Calm Calm - N/A   Clear
2:53 AM 66.9 °F - 63.0 °F 87% 30.06 in 10.0 mi Calm Calm - N/A   Clear
3:53 AM 66.0 °F - 63.0 °F 90% 30.07 in 10.0 mi Calm Calm - N/A   Clear
4:53 AM 66.0 °F - 62.1 °F 87% 30.08 in 10.0 mi Calm Calm - N/A   Clear
5:53 AM 66.0 °F - 62.1 °F 87% 30.10 in 10.0 mi Calm Calm - N/A   Clear
6:53 AM 64.9 °F - 61.0 °F 87% 30.12 in 10.0 mi Calm Calm - N/A   Clear
7:53 AM 66.0 °F - 62.1 °F 87% 30.15 in 10.0 mi Calm Calm - N/A   Clear
8:53 AM 69.1 °F - 64.0 °F 84% 30.16 in 10.0 mi Calm Calm - N/A   Clear
9:53 AM 75.0 °F - 64.0 °F 69% 30.17 in 10.0 mi Variable 3.5 mph - N/A   Clear
11:53 AM 82.9 °F 84.4 °F 64.0 °F 53% 30.16 in 10.0 mi Variable 3.5 mph - N/A   Clear
12:53 PM 86.0 °F 86.8 °F 63.0 °F 46% 30.15 in 10.0 mi East 4.6 mph - N/A   Clear
1:53 PM 88.0 °F 87.9 °F 61.0 °F 40% 30.14 in 10.0 mi Calm Calm - N/A   Clear
2:53 PM 91.0 °F 91.5 °F 62.1 °F 38% 30.12 in 10.0 mi Calm Calm - N/A   Clear
3:53 PM 90.0 °F 90.3 °F 62.1 °F 39% 30.12 in 10.0 mi Calm Calm - N/A   Clear
5:53 PM 91.0 °F 91.5 °F 62.1 °F 38% 30.10 in 10.0 mi Variable 4.6 mph - N/A   Clear
6:53 PM 89.1 °F 90.0 °F 63.0 °F 42% 30.11 in 10.0 mi ENE 4.6 mph - N/A   Clear
7:53 PM 84.0 °F 85.8 °F 64.9 °F 53% 30.13 in 10.0 mi Calm Calm - N/A   Clear
8:53 PM 78.1 °F - 66.0 °F 66% 30.14 in 10.0 mi Calm Calm - N/A   Clear
9:53 PM 75.0 °F - 66.0 °F 73% 30.14 in 10.0 mi Calm Calm - N/A   Clear
10:53 PM 73.0 °F - 64.9 °F 76% 30.15 in 10.0 mi Calm Calm - N/A   Clear
11:53 PM 72.0 °F - 66.0 °F 81% 30.14 in 10.0 mi Calm Calm - N/A   Clear